Location: Korczew
(51.3586°N, 19.4491°E)
Time: 08:21:45
(UTC+00:00)

Cosmos 1697 Rocket - Pass Details

Date: 19 May 2025
Orbit: 830 x 844 km, 71.0° (Epoch: 16 June)

Event Time Altitude Azimuth Distance (km) Brightness Sun altitude
Rises 19:34:12 0° 329° (NNW) 3,407 7.8 -8.1°
Reaches altitude 10° 19:36:39 10° 330° (NNW) 2,470 6.7 -8.3°
Maximum altitude 19:42:21 85° 60° (ENE) 853 2.7 -8.9°
Enters shadow 19:47:44 12° 149° (SSE) 2,353 4.4 -9.5°
